Home   Weather   Feldbach   Past weeks

Flag for Austria Past Weather in Feldbach, Styria, Austria — Yesterday and Last 2 Weeks

Now
59 °F

Passing clouds.


Feels Like: 60 °F
Forecast: 48 / 72 °F
Wind: 3 mph from North

Location: Graz-Thalerhof-Flughafen

Current Time: May 25, 2017 at 10:23:18 pm

Latest Report: May 25, 2017 at 9:00 pm


Visibility: 31 mi

Pressure: 30.09 "Hg

Humidity: 52%

Dew Point: 42 °F

Location of FeldbachLocation

Past Weather in Feldbach — Graph

°F

Feldbach Temperature Yesterday

Maximum temperature yesterday: 71 °F (at 6:00 pm)
Minimum temperature yesterday: 53 °F (at 3:00 am)
Average temperature yesterday: 61 °F

High & Low Weather Summary for the Past Weeks

 TemperatureHumidityPressure
High80 °F (May 19, 5:00 pm)99% (May 18, 6:00 am)30.39 "Hg (May 18, 6:00 am)
Low38 °F (May 11, 6:00 am)31% (May 19, 7:00 pm)29.59 "Hg (May 12, 4:00 pm)
Average62 °F65%30.02 "Hg
* Reported May 10 9:00 pm — May 25 9:00 pm, Feldbach. Weather by CustomWeather, © 2017

Note: Actual official high and low records may vary slightly from our data, if they occured in-between our weather recording intervals... More about our weather records

Advertising

Feldbach Weather History for the Previous 24 Hours

Scroll right to see more
 ConditionsComfort  
Time TempWeatherWind HumidityBarometerVisibility
9:00 pm
Thu, May 25
59 °FPassing clouds.3 mph52%30.09 "Hg31 mi
8:00 pm64 °FPassing clouds.6 mph42%30.06 "Hg22 mi
7:00 pm67 °FScattered clouds.10 mph39%30.06 "Hg28 mi
6:00 pm68 °FPartly sunny.8 mph37%30.04 "Hg22 mi
5:00 pm67 °FPartly sunny.5 mph42%30.05 "Hg25 mi
4:00 pm68 °FPartly sunny.N/A35%30.05 "Hg22 mi
3:00 pm68 °FScattered clouds.3 mph36%30.06 "Hg22 mi
2:00 pm68 °FScattered clouds.6 mph36%30.06 "Hg19 mi
1:00 pm67 °FPassing clouds.8 mph36%30.07 "Hg19 mi
12:00 pm65 °FPassing clouds.9 mph39%30.09 "Hg25 mi
11:00 am64 °FPassing clouds.6 mph40%30.09 "Hg25 mi
10:00 am62 °FPassing clouds.7 mph49%30.10 "Hg25 mi
9:00 am60 °FPassing clouds.5 mph52%30.11 "Hg19 mi
8:00 am55 °FPassing clouds.N/A77%30.13 "Hg28 mi
7:00 am51 °FPassing clouds.N/A89%30.14 "Hg22 mi
6:00 am49 °FScattered clouds.N/A95%30.14 "Hg6 mi
5:00 am50 °FLight rain. Passing clouds.N/A97%30.13 "Hg1 mi
4:00 am51 °FPassing clouds.N/A96%30.13 "Hg22 mi
3:00 am51 °FPassing clouds.N/A93%30.12 "Hg28 mi
2:00 am53 °FOvercast.N/A86%30.12 "Hg28 mi
1:00 am55 °FRain showers. Overcast.5 mph81%30.11 "Hg25 mi
12:00 am59 °FOvercast.N/A64%30.06 "Hg31 mi
11:00 pm
Wed, May 24
61 °FOvercast.N/A56%30.05 "Hg31 mi
10:00 pm63 °FOvercast.N/A48%30.05 "Hg31 mi
Weather by CustomWeather, © 2017

See weather overviewHow to use our weather pages